星链-3329 (STARLINK-3329 )

导读 | 星芒AI

STARLINK-3329 是 SpaceX Starlink 项目中的一颗低轨通信卫星,属于第 11 批(V1.5 版本)部署的卫星之一。该卫星于 2022 年 9 月发射,旨在为全球用户提供高速互联网服务。它运行在约 550 公里的轨道高度,采用先进的通信技术,支持宽带数据传输。Starlink 卫星群通过组网实现全球覆盖,特别服务于偏远地区。STARLINK-3329 在提升网络连接性和推动全球数字包容方面发挥着重要作用。

基本信息
目录编号:
50827
目录名称:
STARLINK-3329
国际标识:
2022-001AA
轨道中心:
EARTH
卫星名称:
星链-3329
卫星全名:
星链-3329 (STARLINK-3329 )
卫星状态:
在轨 (已飞行1444 天)
发射日期:
2022-01-06 UTC
国别 :
美国 (US)
星等 :
--
轨道信息
数据来源 国际轨道数据
星历时间: 2025-12-20T04:56:17+0800
15小时前
查看轨道信息
半长轴: 6917.929km
偏心率: 0.0001049
轨道倾角: 53.217°
近地点辐角 96.576°
升交点赤经 167.429°
平近点角 263.535°
近地点: 539.066km
远地点: 540.518km
周期: 95.439分钟
每日圈数: 15.088243
详细信息
固有亮度:
5
最大亮度:
2.5
卫星平台:
Starlink v1.5
覆盖范围:
全球
运营商:
太空探索技术公司
运营商所在国:
美国
制造商(研发单位):
太空探索技术公司
制造商所在国:
美国
使用方式:
暂无
卫星简介
星链(Starlink)计划是由太空探索技术公司(SpaceX)提出的一个巨型低轨卫星互联网星座项目,计划在2019年至2024年间在太空搭建由约1.2万颗卫星组成的“星链”网络,其中1584颗将部署在地球上空550千米处的近地轨道,并从2020年开始工作。该卫星仍在工作。
2D轨道图
3D轨道图
轨道高度分析图
轨道倾角分析图
轨道综合分析图
查看轨道综合分析图